| time (UTC) | temp C | wind direction | speed KPH | gust KPH | rain 1hr cm | rain 24hr cm | rain mn cm | humidity % | barometer mb |
| 20260504191716 | 21 | 0.0 | 0.0 | 0.00 | 0.00 | 0.00 | 46 | 1011.8 | |
| 20260504190728 | 21 | 0.0 | 0.0 | 0.00 | 0.00 | 0.00 | 45 | 1011.7 | |
| 20260504185725 | 21 | 0.0 | 0.0 | 0.00 | 0.00 | 0.00 | 44 | 1011.6 | |
| 20260504184723 | 21 | 0.0 | 0.0 | 0.00 | 0.00 | 0.00 | 44 | 1011.6 | |
| 20260504183720 | 21 | 0.0 | 0.0 | 0.00 | 0.00 | 0.00 | 43 | 1011.5 | |
| 20260504181729 | 22 | 0.0 | 0.0 | 0.00 | 0.00 | 0.00 | 41 | 1011.4 | |
| 20260504180726 | 22 | 0.0 | 0.0 | 0.00 | 0.00 | 0.00 | 41 | 1011.4 | |
| 20260504175723 | 23 | 0.0 | 0.0 | 0.00 | 0.00 | 0.00 | 40 | 1011.4 | |
| 20260504174721 | 24 | 0.0 | 0.0 | 0.00 | 0.00 | 0.00 | 38 | 1011.2 | |
| 20260504172715 | 26 | 0.0 | 0.0 | 0.00 | 0.00 | 0.00 | 34 | 1011.1 | |
| 20260504171727 | 26 | 0.0 | 0.0 | 0.00 | 0.00 | 0.00 | 32 | 1011.2 | |
| 20260504170725 | 27 | 0.0 | 0.0 | 0.00 | 0.00 | 0.00 | 30 | 1011.1 | |
| 20260504150720 | 27 | 0.0 | 0.0 | 0.00 | 0.00 | 0.00 | 25 | 1011.3 | |
| 20260504140719 | 27 | 0.0 | 0.0 | 0.00 | 0.00 | 0.00 | 23 | 1011.6 | |
| 20260504130716 | 30 | 0.0 | 0.0 | 0.00 | 0.00 | 0.00 | 24 | 1012.1 | |
| 20260504081725 | 24 | 0.0 | 0.0 | 0.00 | 0.00 | 0.00 | 32 | 1013.8 | |
| 20260504050715 | 17 | 0.0 | 0.0 | 0.00 | 0.00 | 0.00 | 44 | 1012.9 | |
| 20260504045727 | 17 | 0.0 | 0.0 | 0.00 | 0.00 | 0.00 | 44 | 1012.8 | |
| 20260504044724 | 16 | 0.0 | 0.0 | 0.00 | 0.00 | 0.00 | 45 | 1012.8 | |
| 20260504043722 | 16 | 0.0 | 0.0 | 0.00 | 0.00 | 0.00 | 45 | 1012.9 | |
| 20260504042718 | 16 | 0.0 | 0.0 | 0.00 | 0.00 | 0.00 | 44 | 1013.0 | |
| 20260504041716 | 16 | 0.0 | 0.0 | 0.00 | 0.00 | 0.00 | 45 | 1013.0 | |
| 20260504040728 | 16 | 0.0 | 0.0 | 0.00 | 0.00 | 0.00 | 45 | 1013.0 | |
| 20260504035725 | 16 | 0.0 | 0.0 | 0.00 | 0.00 | 0.00 | 45 | 1012.9 | |
| 20260504033720 | 16 | 0.0 | 0.0 | 0.00 | 0.00 | 0.00 | 45 | 1013.0 | |
| 20260504032716 | 16 | 0.0 | 0.0 | 0.00 | 0.00 | 0.00 | 44 | 1012.9 | |
| 20260504031729 | 16 | 0.0 | 0.0 | 0.00 | 0.00 | 0.00 | 44 | 1012.9 | |
| 20260504030726 | 16 | 0.0 | 0.0 | 0.00 | 0.00 | 0.00 | 44 | 1012.9 | |
| 20260504025723 | 17 | 0.0 | 0.0 | 0.00 | 0.00 | 0.00 | 42 | 1012.9 | |
| 20260504024720 | 17 | 0.0 | 0.0 | 0.00 | 0.00 | 0.00 | 42 | 1012.7 | |
| 20260504022730 | 17 | 0.0 | 0.0 | 0.00 | 0.00 | 0.00 | 42 | 1012.4 | |
| 20260504021727 | 17 | 0.0 | 0.0 | 0.00 | 0.00 | 0.00 | 41 | 1012.6 | |
| 20260504020724 | 17 | 0.0 | 0.0 | 0.00 | 0.00 | 0.00 | 41 | 1012.6 | |
| 20260504015721 | 17 | 0.0 | 0.0 | 0.00 | 0.00 | 0.00 | 40 | 1012.6 | |
| 20260504014718 | 18 | 0.0 | 0.0 | 0.00 | 0.00 | 0.00 | 39 | 1012.6 | |
| 20260504012728 | 18 | 0.0 | 0.0 | 0.00 | 0.00 | 0.00 | 38 | 1012.2 | |
| 20260504011725 | 18 | 0.0 | 0.0 | 0.00 | 0.00 | 0.00 | 38 | 1012.0 | |
| 20260504005720 | 18 | 0.0 | 0.0 | 0.00 | 0.00 | 0.00 | 38 | 1012.1 | |
| 20260504004716 | 18 | 0.0 | 0.0 | 0.00 | 0.00 | 0.00 | 37 | 1012.0 | |
| 20260504003729 | 18 | 0.0 | 0.0 | 0.00 | 0.00 | 0.00 | 36 | 1012.0 | |
| 20260504002726 | 18 | 0.0 | 0.0 | 0.00 | 0.00 | 0.00 | 37 | 1011.8 | |
| 20260504001723 | 18 | 0.0 | 0.0 | 0.00 | 0.00 | 0.00 | 38 | 1011.7 | |
| 20260504000720 | 18 | 0.0 | 0.0 | 0.00 | 0.00 | 0.00 | 38 | 1011.4 | |
| 20260503234730 | 19 | 0.0 | 0.0 | 0.00 | 0.00 | 0.00 | 36 | 1011.4 | |
| 20260503232724 | 20 | 0.0 | 0.0 | 0.00 | 0.00 | 0.00 | 35 | 1011.3 | |
| 20260503231721 | 20 | 0.0 | 0.0 | 0.00 | 0.00 | 0.00 | 35 | 1011.4 | |
| 20260503230718 | 20 | 0.0 | 0.0 | 0.00 | 0.00 | 0.00 | 35 | 1011.4 | |
| 20260503225716 | 20 | 0.0 | 0.0 | 0.00 | 0.00 | 0.00 | 34 | 1011.4 | |
| 20260503224728 | 20 | 0.0 | 0.0 | 0.00 | 0.00 | 0.00 | 34 | 1011.5 | |
| 20260503223725 | 20 | 0.0 | 0.0 | 0.00 | 0.00 | 0.00 | 34 | 1011.5 | |
| 20260503221719 | 20 | 0.0 | 0.0 | 0.00 | 0.00 | 0.00 | 34 | 1011.8 | |
| 20260503215729 | 20 | 0.0 | 0.0 | 0.00 | 0.00 | 0.00 | 34 | 1011.6 | |
| 20260503214726 | 20 | 0.0 | 0.0 | 0.00 | 0.00 | 0.00 | 34 | 1011.7 | |
| 20260503213723 | 20 | 0.0 | 0.0 | 0.00 | 0.00 | 0.00 | 34 | 1011.6 | |
| 20260503212722 | 20 | 0.0 | 0.0 | 0.00 | 0.00 | 0.00 | 34 | 1011.6 | |
| 20260503210729 | 20 | 0.0 | 0.0 | 0.00 | 0.00 | 0.00 | 34 | 1011.7 | |
| 20260503205726 | 20 | 0.0 | 0.0 | 0.00 | 0.00 | 0.00 | 34 | 1011.8 | |
| 20260503204724 | 21 | 0.0 | 0.0 | 0.00 | 0.00 | 0.00 | 33 | 1011.7 | |
| 20260503203721 | 21 | 0.0 | 0.0 | 0.00 | 0.00 | 0.00 | 32 | 1011.9 | |
| 20260503202718 | 21 | 0.0 | 0.0 | 0.00 | 0.00 | 0.00 | 32 | 1011.8 | |
| 20260503201715 | 21 | 0.0 | 0.0 | 0.00 | 0.00 | 0.00 | 32 | 1011.7 | |
| 20260503200727 | 21 | 0.0 | 0.0 | 0.00 | 0.00 | 0.00 | 31 | 1012.0 | |
| 20260503194721 | 21 | 0.0 | 0.0 | 0.00 | 0.00 | 0.00 | 29 | 1012.0 | |
| 20260503193718 | 21 | 0.0 | 0.0 | 0.00 | 0.00 | 0.00 | 28 | 1012.0 | |
| 20260503192715 | 21 | 0.0 | 0.0 | 0.00 | 0.00 | 0.00 | 27 | 1012.0 |